TimeEST,TemperatureF,Dew PointF,Humidity,Sea Level PressureIn,VisibilityMPH,Wind Direction,Wind SpeedMPH,Gust SpeedMPH,PrecipitationIn,Events,Conditions,WindDirDegrees,DateUTC
12:54 AM,34.0,25.0,70,30.17,10.0,Calm,Calm,-,N/A,,Clear,0,2012-11-06 05:54:00
1:54 AM,33.1,25.0,72,30.17,10.0,Calm,Calm,-,N/A,,Clear,0,2012-11-06 06:54:00
2:54 AM,30.0,24.1,79,30.18,10.0,Calm,Calm,-,N/A,,Clear,0,2012-11-06 07:54:00
3:54 AM,28.9,24.1,82,30.17,10.0,Calm,Calm,-,N/A,,Clear,0,2012-11-06 08:54:00
4:54 AM,30.9,24.1,76,30.17,10.0,NW,3.5,-,N/A,,Clear,320,2012-11-06 09:54:00
5:54 AM,30.9,24.1,76,30.17,10.0,NNW,3.5,-,N/A,,Partly Cloudy,330,2012-11-06 10:54:00
6:54 AM,33.1,24.1,70,30.19,10.0,NNW,5.8,-,N/A,,Mostly Cloudy,340,2012-11-06 11:54:00
7:54 AM,35.1,25.0,67,30.19,10.0,NNW,5.8,-,N/A,,Overcast,340,2012-11-06 12:54:00
8:54 AM,39.0,28.0,65,30.19,10.0,North,4.6,-,N/A,,Overcast,350,2012-11-06 13:54:00
9:54 AM,45.0,32.0,60,30.19,10.0,NNE,11.5,-,N/A,,Overcast,30,2012-11-06 14:54:00
10:54 AM,46.9,33.1,59,30.19,10.0,NNE,9.2,-,N/A,,Overcast,20,2012-11-06 15:54:00
11:54 AM,48.0,34.0,58,30.15,10.0,NE,10.4,-,N/A,,Clear,40,2012-11-06 16:54:00
12:54 PM,48.9,33.1,54,30.12,10.0,NE,13.8,-,N/A,,Mostly Cloudy,40,2012-11-06 17:54:00
1:54 PM,50.0,30.9,48,30.10,10.0,ENE,12.7,-,N/A,,Scattered Clouds,60,2012-11-06 18:54:00
2:54 PM,48.0,34.0,58,30.09,10.0,NE,16.1,-,N/A,,Overcast,50,2012-11-06 19:54:00
3:54 PM,46.9,35.1,63,30.10,10.0,ENE,16.1,-,N/A,,Overcast,60,2012-11-06 20:54:00
4:54 PM,46.0,35.1,66,30.08,10.0,NE,15.0,19.6,N/A,,Overcast,50,2012-11-06 21:54:00
5:54 PM,45.0,35.1,68,30.06,10.0,NE,16.1,-,N/A,,Mostly Cloudy,40,2012-11-06 22:54:00
6:54 PM,44.1,35.1,71,30.04,10.0,NE,13.8,24.2,N/A,,Overcast,40,2012-11-06 23:54:00
7:54 PM,44.1,35.1,71,30.04,10.0,NE,15.0,24.2,N/A,,Overcast,50,2012-11-07 00:54:00
8:54 PM,44.1,34.0,68,30.03,10.0,NNE,11.5,-,N/A,,Overcast,30,2012-11-07 01:54:00
9:54 PM,45.0,34.0,65,30.02,10.0,NNE,11.5,18.4,N/A,,Overcast,30,2012-11-07 02:54:00
10:54 PM,45.0,34.0,65,29.99,10.0,NNE,12.7,19.6,N/A,,Overcast,20,2012-11-07 03:54:00
11:54 PM,45.0,35.1,68,29.95,10.0,NNE,12.7,20.7,N/A,,Overcast,20,2012-11-07 04:54:00